Location: Kudlacze
(49.7800°N, 20.0200°E)
Time: 00:47:21
(UTC+00:00)

Envisat - Pass Details

Date: 30 September 2021
Orbit: 764 x 766 km, 98.2° (Epoch: 17 October)

Event Time Altitude Azimuth Distance (km) Brightness Sun altitude
Rises 02:30:19 0° 28° (NNE) 3,243 7.0 -21.1°
Reaches altitude 10° 02:33:35 10° 50° (NE) 2,310 6.5 -20.6°
Maximum altitude 02:36:39 16° 87° (E) 1,925 6.0 -20.1°
Drops below altitude 10° 02:39:42 10° 125° (SE) 2,299 5.9 -19.7°
Sets 02:42:55 0° 147° (SSE) 3,219 6.4 -19.2°
